Regional Weather Roundup
Issued by NWS

Home | Current Version | Previous Version | Text Only | Print | Product List | Glossary Off
Versions: 1 2 3 4 5 6 7 8 9 10 11 12 13 14 15 16 17 18 19 20 21 22 23 24 25 26 27 28 29 30 31 32 33 34 35 36 37 38 39 40 41 42 43 44 45 46 47 48 49 50

000
ASUS43 KLMK 260610
RWRKY
KENTUCKY REGIONAL WEATHER ROUNDUP
NATIONAL WEATHER SERVICE LOUISVILLE KY
200 AM EDT SUN OCT 26 2014

NOTE "FAIR" INDICATES FEW OR NO CLOUDS BELOW 12,000 FEET
WITH NO SIGNIFICANT WEATHER AND/OR OBSTRUCTIONS TO VISIBILITY.

KYZ001>023-026-027-061>063-070>075-260700-
WESTERN AND SOUTH CENTRAL KENTUCKY

CITY           SKY/WX    TMP DP  RH WIND       PRES   REMARKS
PADUCAH        FOG       56  56 100 CALM      29.99S VSB 1/2
HENDERSON      CLEAR    N/A N/A N/A CALM      29.99S
OWENSBORO      CLEAR     54  53  96 CALM      29.99S FOG
HOPKINSVILLE   CLEAR     57  57 100 SW2       30.00S FOG
BOWLING GREEN  FOG       53  51  93 CALM      30.00S VSB 1/4
GLASGOW        FOG       51  51 100 CALM      29.99F VSB<1/4
$$

KYZ024-025-028>034-038-045-046-053-260700-
NORTH CENTRAL KENTUCKY

CITY           SKY/WX    TMP DP  RH WIND       PRES   REMARKS
LOUISVILLE/SDF CLEAR     60  53  77 CALM      29.97R
LOUISVILLE/LOU CLEAR     55  52  89 CALM      29.98R
FORT KNOX      CLEAR     56  51  85 W6        29.97S
$$

KYZ035>037-039>044-047>052-055>060-089>105-260700-
NORTHEAST KENTUCKY

CITY           SKY/WX    TMP DP  RH WIND       PRES   REMARKS
LEXINGTON      CLEAR     61  54  77 W8        29.97R
COVINGTON      CLEAR     60  36  40 NW12      29.95R
FRANKFORT      CLEAR     62  53  72 NW6       29.96R
$$

KYZ054-064>069-076>088-106>120-260700-
SOUTHEAST KENTUCKY

CITY           SKY/WX    TMP DP  RH WIND       PRES   REMARKS
JACKSON        CLEAR     58  55  90 VRB3      29.96S
LONDON         FOG       53  50  89 CALM      29.99S VSB 1
SOMERSET       FOG       50  50 100 CALM      30.00S VSB 1/4
MIDDLESBORO    CLEAR     47  47 100 CALM      30.00S FOG
MONTICELLO     FOG       44  44 100 CALM      30.02R VSB<1/4
$$




USA.gov is the U.S. government's official web portal to all federal, state and local government web resources and services.